Weather Roundup
Issued by NWS Chicago, IL

Home | Current Version | Previous Version | Graphics & Text | Print | Product List | Glossary On
Versions: 1 2 3 4 5 6 7 8 9 10 11 12 13 14 15 16 17 18 19 20 21 22 23 24 25 26 27 28 29 30 31 32 33 34 35 36 37 38 39 40 41 42 43 44 45 46 47 48 49 50
000
NZUS59 KLOT 232009
HRRLOT

CHICAGO AREA WEATHER ROUNDUP
NATIONAL WEATHER SERVICE CHICAGO/ROMEOVILLE IL
300 PM CDT SAT SEP 23 2017

NOTE: "FAIR" INDICATES FEW OR NO CLOUDS BELOW 12,000 FEET WITH NO
SIGNIFICANT WEATHER AND/OR OBSTRUCTIONS TO VISIBILITY.

* THESE STATIONS ARE NOT UNDER NWS QUALITY CONTROL. THEY ALSO MAY NOT
  REPORT WEATHER SUCH AS PRECIPITATION OR FOG.

ILZ005-006-012>014-019>023-232100-
NORTHEAST ILLINOIS

CITY           SKY/WX    TMP DP  RH WIND       PRES   REMARKS
OHARE          MOSUNNY   92  64  39 E10       30.04F HX  93
MIDWAY         MOSUNNY   93  66  40 E13       30.05F HX  96
AURORA         MOSUNNY   93  66  40 VRB3      30.06F HX  96
LANSING*       SUNNY     91  68  45 CALM      30.06F HX  95
JOLIET*        SUNNY     94  65  38 CALM      30.05F HX  96
WAUKEGAN       SUNNY     87  69  54 E8        30.06F HX  91
DUPAGE AIRPORT MOSUNNY   93  64  38 SE8       30.05F HX  94
WHEELING       SUNNY     93  67  42 SE12      30.06F HX  96
MORRIS*        SUNNY     92  63  37 SE7       30.04F HX  93
LEWIS AIRPORT* SUNNY     93  63  37 SE6       30.05F HX  93
NORTHERLY ISL    N/A     80  68  66 E5          N/A  HX  83
$$

WIZ051-052-058>065-066-070>072-232100-
SOUTHEAST WISCONSIN

CITY           SKY/WX    TMP DP  RH WIND       PRES   REMARKS
MILWAUKEE      MOSUNNY   87  67  51 SE16      30.06F HX  90
KENOSHA*       SUNNY     90  66  45 SE14      30.07S HX  92
RACINE*        SUNNY     87  67  51 SE10      30.08F HX  90
WAUKESHA       PTSUNNY   90  61  37 S3        30.08F HX  89
WEST BEND        N/A     86  63  45 SE8       30.06F HX  87
$$

INZ001>003-010>013-019-020-232100-
NORTHWEST INDIANA

CITY           SKY/WX    TMP DP  RH WIND       PRES   REMARKS
GARY*          MOSUNNY   90  64  43 NE12      30.07F HX  91
MICHIGAN CITY* NOT AVBL
RENSSELAER*    NOT AVBL
VALPARAISO     SUNNY     94  62  34 E7        30.07F HX  94
$$

LMZ740>746-232100-
SOUTHERN LAKE MICHIGAN

STATION/POSITION TIME  SKY/WX   TEMP WIND        PRES    VSBY
                                AIR  DIR/SP/G
                 (UTC)          (F)  (DEG/KT/KT) (MB)    (MI)
HARRISON CRIB    1910            81   90/ 13/ 13   N/A
BURNHAM HARBOR   2000            80                N/A
CALUMET HARBOR   1942            79   50/  8/ 11 1017.6F
BURNS HARBOR     2001            80   70/  8/ 10 1018.3
MICHIGAN CITY    1940            77   40/  5/  6   N/A
$$

ABBREVIATIONS USED IN REMARKS
   TC - TEMPERATURE IN CELSIUS
  WCI - WIND CHILL INDEX
   HX - HEAT INDEX
  VSB - VISIBILITY
$$




USA.gov is the U.S. government's official web portal to all federal, state and local government web resources and services.